Weather History for LFTW - September, 2013

Change the Weather History Date:

Sunday, September 22, 2013

  Actual Average Record
Temperature  
Mean Temperature 70 °F -  
Max Temperature 80 °F 68 °F 82 °F (2011)
Min Temperature 60 °F 53 °F 53 °F (2005)
Cooling Degree Days 5    
Growing Degree Days 20 (Base 50)    
Moisture  
Dew Point 51 °F    
Average Humidity 52    
Maximum Humidity 72    
Minimum Humidity 32    
Precipitation  
Precipitation 0.00 in - - ()
Sea Level Pressure  
Sea Level Pressure 30.23 in    
Wind  
Wind Speed 9 mph ()    
Max Wind Speed 14 mph    
Max Gust Speed -    
Visibility 6.2 miles    
Events      
Averages and records for this station are not official NWS values.
T = Trace of Precipitation, MM = Missing Value Source: Averaged Metar Reports

Daily Weather History Graph

Daily Weather History Graph

Search for Another Location

Airport or City:

Trip Planner

Search our weather history database for the weather conditions in past years. The results will help you decide how hot, cold, wet, or windy it might be!

Date:

Astronomy

Sep. 22, 2013 Rise Set
Actual Time 7:29 AM CEST 7:39 PM CEST
Civil Twilight 7:00 AM CEST 8:08 PM CEST
Nautical Twilight 6:27 AM CEST 8:41 PM CEST
Astronomical Twilight 5:52 AM CEST 9:16 PM CEST
Moon 9:11 PM CEST (9/22) 10:41 AM CEST (9/22)
Length of Visible Light 13h 07m
Length of Day
12h 10m
Waning Gibbous, 90% of the Moon is Illuminated
Sep 22
Waning Gibbous
Sep 27
Last Quarter
Oct 5
New
Oct 12
First Quarter
Oct 19
Full

Hourly Weather History & Observations

Time (CEST) Temp. Dew Point Humidity Pressure Visibility Wind Dir Wind Speed Gust Speed Precip Events Conditions
12:00 AM 66.2 °F 48.2 °F 52% 30.21 in 6.2 mi North 13.8 mph - N/A   Unknown
12:30 AM 66.2 °F 50.0 °F 56% 30.21 in 6.2 mi North 13.8 mph - N/A   Unknown
1:00 AM 66.2 °F 50.0 °F 56% 30.21 in 6.2 mi North 13.8 mph - N/A   Unknown
1:30 AM 64.4 °F 50.0 °F 59% 30.21 in 6.2 mi North 12.7 mph - N/A   Unknown
2:00 AM 64.4 °F 50.0 °F 59% 30.21 in 6.2 mi North 11.5 mph - N/A   Unknown
2:30 AM 64.4 °F 50.0 °F 59% 30.21 in 6.2 mi North 12.7 mph - N/A   Unknown
3:00 AM 64.4 °F 50.0 °F 59% 30.21 in 6.2 mi NNE 13.8 mph - N/A   Unknown
3:30 AM 64.4 °F 50.0 °F 59% 30.21 in 6.2 mi NNE 13.8 mph - N/A   Unknown
4:00 AM 64.4 °F 50.0 °F 59% 30.21 in 6.2 mi NNE 13.8 mph - N/A   Unknown
4:30 AM 64.4 °F 50.0 °F 59% 30.21 in 6.2 mi NNE 12.7 mph - N/A   Unknown
5:00 AM 62.6 °F 50.0 °F 63% 30.21 in 6.2 mi NNE 11.5 mph - N/A   Unknown
5:30 AM 62.6 °F 50.0 °F 63% 30.21 in 6.2 mi NNE 11.5 mph - N/A   Unknown
6:00 AM 62.6 °F 50.0 °F 63% 30.21 in 6.2 mi NNE 11.5 mph - N/A   Unknown
6:30 AM 62.6 °F 50.0 °F 63% 30.21 in 6.2 mi NNE 11.5 mph - N/A   Unknown
7:00 AM 62.6 °F 50.0 °F 63% 30.21 in 6.2 mi NNE 10.4 mph - N/A   Unknown
7:30 AM 60.8 °F 51.8 °F 72% 30.24 in 6.2 mi NNE 10.4 mph - N/A   Unknown
8:00 AM 62.6 °F 51.8 °F 68% 30.24 in 6.2 mi NNE 10.4 mph - N/A   Unknown
8:30 AM 62.6 °F 51.8 °F 68% 30.24 in 6.2 mi NNE 10.4 mph - N/A   Unknown
9:00 AM 64.4 °F 51.8 °F 64% 30.24 in 6.2 mi NNE 11.5 mph - N/A   Unknown
9:30 AM 66.2 °F 51.8 °F 60% 30.24 in 6.2 mi NNE 13.8 mph - N/A   Unknown
10:00 AM 66.2 °F 51.8 °F 60% 30.27 in 6.2 mi NNE 11.5 mph - N/A   Unknown
10:30 AM 68.0 °F 53.6 °F 60% 30.27 in 6.2 mi NNE 12.7 mph - N/A   Unknown
11:00 AM 69.8 °F 51.8 °F 53% 30.27 in 6.2 mi NNE 11.5 mph - N/A   Unknown
11:30 AM 71.6 °F 51.8 °F 50% 30.27 in 6.2 mi NE 10.4 mph - N/A   Unknown
12:00 PM 73.4 °F 51.8 °F 47% 30.27 in 6.2 mi ENE 10.4 mph - N/A   Unknown
12:30 PM 73.4 °F 51.8 °F 47% 30.27 in 6.2 mi NE 8.1 mph - N/A   Unknown
1:00 PM 75.2 °F 51.8 °F 44% 30.27 in 6.2 mi NNE 8.1 mph - N/A   Unknown
1:30 PM 77.0 °F 51.8 °F 41% 30.27 in 6.2 mi NE 8.1 mph - N/A   Unknown
2:00 PM 77.0 °F 50.0 °F 39% 30.24 in 6.2 mi NE 6.9 mph - N/A   Unknown
2:30 PM 78.8 °F 50.0 °F 36% 30.24 in 6.2 mi Variable 4.6 mph - N/A   Unknown
3:00 PM 77.0 °F 50.0 °F 39% 30.24 in 6.2 mi NE 3.5 mph - N/A   Unknown
3:30 PM 80.6 °F 48.2 °F 32% 30.24 in 6.2 mi Variable 3.5 mph - N/A   Unknown
4:00 PM 80.6 °F 48.2 °F 32% 30.24 in 6.2 mi South 4.6 mph - N/A   Unknown
4:30 PM 80.6 °F 50.0 °F 34% 30.21 in 6.2 mi SSE 4.6 mph - N/A   Unknown
5:00 PM 78.8 °F 51.8 °F 39% 30.21 in 6.2 mi Variable 3.5 mph - N/A   Unknown
5:30 PM 78.8 °F 51.8 °F 39% 30.21 in 6.2 mi South 5.8 mph - N/A   Unknown
6:00 PM 77.0 °F 51.8 °F 41% 30.21 in 6.2 mi South 4.6 mph - N/A   Unknown
6:30 PM 77.0 °F 53.6 °F 44% 30.21 in 6.2 mi SSE 5.8 mph - N/A   Unknown
7:00 PM 75.2 °F 55.4 °F 50% 30.21 in 6.2 mi South 4.6 mph - N/A   Unknown
7:30 PM 73.4 °F 53.6 °F 50% 30.21 in 6.2 mi Variable 2.3 mph - N/A   Unknown
8:00 PM 71.6 °F 55.4 °F 57% 30.21 in 6.2 mi SSW 3.5 mph - N/A   Unknown
8:30 PM 69.8 °F 55.4 °F 60% 30.21 in 6.2 mi Calm Calm - N/A   Unknown
9:00 PM 69.8 °F 51.8 °F 53% 30.21 in 6.2 mi Variable 4.6 mph - N/A   Unknown
9:30 PM 69.8 °F 42.8 °F 38% 30.21 in 6.2 mi North 9.2 mph - N/A   Unknown
10:00 PM 69.8 °F 44.6 °F 40% 30.21 in 6.2 mi North 6.9 mph - N/A   Unknown
10:30 PM 68.0 °F 46.4 °F 46% 30.21 in 6.2 mi NNW 3.5 mph - N/A   Unknown
11:00 PM 68.0 °F 48.2 °F 49% 30.21 in 6.2 mi North 4.6 mph - N/A   Unknown
11:30 PM 66.2 °F 50.0 °F 56% 30.21 in 6.2 mi North 5.8 mph - N/A   Unknown